Location: Grossmotten
(48.5500°N, 15.3833°E)
Time: 15:56:22
(UTC+00:00)

ATLAS 2AS CENTAUR R/B - Pass Details

Date: 15 November 2019
Orbit: 926 x 1286 km, 63.7° (Epoch: 09 December)

Event Time Altitude Azimuth Distance (km) Brightness Sun altitude
Exits shadow 03:10:36 26° 336° (NNW) 2,249 4.2 -28.9°
Maximum altitude 03:14:45 46° 33° (NNE) 1,576 3.7 -28.2°
Drops below altitude 10° 03:21:43 10° 106° (ESE) 3,019 5.9 -27.0°
Sets 03:24:26 0° 113° (ESE) 3,922 6.7 -26.6°
